Temp
6 6 6 5 5 5 4 4 5 6 6 6 6 5 5 6 8 9 8 8 9 9 10 11 12 12 12 13 13 13 13 13 13 13 12 12 11 11 11 11 11 10 11 11
4 5 5 5 5 5 6 6 5 6 6 7 6 7 6 6 7 7 8 8 8 8 9 9 10 11 11 12 12 11 12 12 12 12 12 11 11 11 10 10 10 10 10 9
4 4 6 4 5 6 6 5 7 6 7 6 5 5 4 6 6 6 7 8 8 8 8 8 8 9 10 10 11 11 11 10 10 10 10 10 10 10 9 9 9 9 8 8
3 4 4 5 5 6 6 5 5 6 6 6 5 5 5 5 6 6 7 8 8 8 8 8 8 8 9 9 9 9 10 10 10 10 10 9 9 8 8 8 8 7 8 8
4 3 5 6 5 6 7 5 5 6 5 6 6 6 5 5 5 5 6 6 8 9 9 8 8 8 8 8 8 8 8 8 8 8 8 8 8 8 7 7 7 7 7 7
3 3 5 5 5 6 6 5 6 6 5 5 6 5 4 5 6 6 5 6 7 8 9 8 8 8 7 7 7 7 7 7 7 7 7 7 7 7 7 6 6 6 6 6
3 2 4 5 4 5 5 5 5 6 6 6 4 5 5 5 5 5 6 6 6 7 8 8 8 7 7 6 6 6 6 6 6 6 6 6 6 6 6 6 6 6 6 6
2 3 4 4 4 6 4 5 5 6 6 5 5 5 5 5 5 5 5 5 6 6 6 7 7 7 7 6 6 6 6 7 6 6 6 6 6 6 6 5 5 6 6 6
3 4 3 3 4 4 5 5 5 5 5 6 5 5 5 5 5 5 5 5 5 5 5 6 7 6 6 6 6 6 6 5 5 5 5 5 5 5 5 5 5 5 5 5
3 3 3 3 4 4 5 5 5 5 5 5 5 5 5 6 5 4 4 5 5 5 5 5 5 5 5 5 5 5 5 5 5 5 5 5 5 5 4 4 4 4 4 4
1 2 3 3 4 4 4 4 4 5 5 5 5 5 5 4 4 4 4 4 4 4 4 4 4 4 4 4 4 3 3 3 3 3 3 3 3 3 4 4 3 3 3 3
2 3 3 4 4 4 4 4 4 4 4 4 5 4 4 4 4 4 3 3 3 3 3 3 3 3 3 3 3 3 3 3 3 2 2 3 3 2 3 2 2 2 2 2
4 4 4 4 4 3 3 4 4 4 4 4 4 4 4 4 3 3 3 3 3 3 3 2 2 2 3 3 3 2 2 2 2 2 2 1 1 1 1 1 1 1 2 1
4 4 2 3 3 3 3 3 3 3 3 3 3 3 3 3 3 2 2 2 2 1 1 1 1 0 1 1 1 1 1 1 1 1 1 1 1 1 0 0 0 0 0 0
3 3 4 3 3 2 2 2 2 2 2 2 2 2 2 2 2 2 2 1 1 0 0 -0 -1 -1 -1 -0 -0 0 0 0 0 0 0 0 0 0 -1 -1 -1 -1 -0 -0
3 3 3 2 2 1 1 1 1 1 1 1 2 2 2 1 1 1 0 0 0 -0 -1 -1 -1 -2 -2 -2 -1 -1 -1 -1 -1 -1 -0 -0 -1 -1 -1 -2 -2 -1 -1 -1
2 1 2 1 1 -0 -1 -2 -1 -1 -0 0 0 0 0 0 -0 -0 -1 -1 -1 -1 -2 -2 -3 -3 -2 -2 -2 -2 -2 -2 -2 -2 -2 -2 -3 -3 -2 -2 -2 -2 -2 -2
4 3 3 2 1 -1 -2 -2 -2 -2 -2 -1 -1 -1 -1 -1 -1 -1 -2 -2 -2 -2 -3 -3 -3 -3 -3 -2 -3 -3 -3 -3 -3 -3 -3 -3 -3 -3 -3 -3 -3 -3 -3 -3
3 3 2 1 -1 -2 -2 -2 -2 -2 -2 -2 -2 -1 -1 -1 -1 -2 -2 -3 -3 -3 -3 -3 -3 -4 -3 -3 -3 -3 -3 -3 -4 -4 -4 -4 -4 -4 -4 -4 -4 -4 -4 -4
2 1 1 -0 -2 -3 -3 -3 -3 -3 -3 -3 -2 -2 -2 -2 -3 -3 -3 -4 -4 -4 -4 -4 -4 -4 -4 -5 -4 -4 -4 -4 -4 -4 -5 -4 -4 -4 -4 -4 -4 -5 -5 -5
1 1 0 -0 -2 -4 -4 -4 -3 -4 -3 -3 -3 -2 -3 -3 -3 -4 -4 -3 -4 -4 -4 -4 -4 -4 -4 -4 -5 -5 -4 -4 -5 -5 -5 -5 -5 -5 -5 -5 -5 -5 -5 -5
1 1 0 -1 -2 -4 -4 -4 -4 -4 -3 -3 -3 -3 -3 -3 -3 -3 -3 -3 -3 -3 -3 -3 -4 -4 -4 -5 -5 -5 -5 -5 -5 -5 -5 -5 -5 -5 -6 -6 -6 -6 -6 -6
1 1 -0 -1 -2 -3 -4 -4 -4 -4 -4 -3 -3 -3 -3 -3 -4 -3 -3 -4 -4 -4 -4 -4 -4 -4 -5 -5 -5 -5 -5 -5 -5 -5 -5 -6 -6 -6 -6 -6 -7 -7 -7 -7
1 0 -0 -1 -2 -2 -3 -3 -4 -4 -4 -3 -3 -3 -3 -3 -3 -4 -4 -4 -4 -4 -4 -4 -4 -5 -5 -5 -5 -5 -5 -5 -6 -6 -6 -6 -7 -7 -7 -7 -7 -7 -7 -7
1 -0 -1 -1 -1 -1 -2 -3 -4 -4 -4 -4 -4 -4 -4 -4 -4 -3 -4 -4 -4 -4 -4 -4 -4 -5 -5 -5 -5 -5 -6 -6 -6 -6 -6 -7 -7 -7 -8 -8 -8 -8 -8 -8
0 0 -1 -1 -1 -1 -1 -2 -2 -3 -4 -4 -4 -5 -5 -5 -5 -4 -4 -4 -4 -5 -5 -5 -5 -5 -5 -6 -6 -6 -6 -7 -7 -7 -7 -7 -8 -8 -8 -8 -8 -8 -7 -8
0 -0 -0 -0 -0 -1 -1 -1 -1 -1 -3 -3 -3 -3 -4 -4 -4 -4 -4 -4 -4 -5 -5 -5 -5 -6 -6 -6 -6 -7 -7 -7 -7 -7 -7 -8 -8 -8 -8 -8 -8 -8 -8 -8
Height
1467 1465 1465 1467 1464 1462 1467 1469 1472 1473 1475 1475 1470 1464 1463 1464 1461 1461 1460 1458 1458 1460 1459 1461 1465 1466 1468 1471 1475 1478 1482 1485 1487 1489 1493 1498 1502 1506 1509 1513 1515 1518 1521 1521
1477 1472 1471 1470 1469 1467 1469 1470 1470 1468 1467 1467 1468 1468 1466 1467 1467 1466 1464 1463 1464 1465 1465 1466 1468 1468 1470 1472 1477 1481 1482 1484 1487 1489 1492 1496 1499 1504 1509 1511 1512 1516 1517 1520
1480 1476 1471 1480 1479 1473 1471 1474 1473 1476 1478 1474 1471 1471 1473 1472 1471 1470 1469 1468 1469 1468 1468 1470 1472 1472 1474 1476 1479 1482 1484 1484 1486 1489 1491 1497 1499 1502 1506 1511 1513 1514 1517 1516
1482 1474 1484 1481 1477 1477 1477 1479 1477 1476 1474 1477 1479 1480 1479 1478 1476 1472 1470 1468 1469 1468 1472 1473 1476 1476 1476 1477 1479 1483 1484 1485 1486 1487 1490 1496 1499 1502 1502 1505 1509 1513 1513 1508
1480 1488 1482 1477 1478 1476 1473 1481 1477 1476 1475 1476 1477 1477 1480 1480 1478 1475 1472 1470 1468 1468 1470 1471 1472 1474 1475 1477 1479 1482 1484 1486 1487 1487 1489 1493 1496 1498 1499 1501 1505 1511 1513 1514
1483 1487 1481 1480 1479 1478 1477 1483 1479 1477 1477 1478 1476 1479 1480 1476 1473 1471 1472 1472 1472 1472 1472 1471 1472 1473 1473 1475 1476 1478 1480 1481 1481 1483 1486 1490 1493 1495 1497 1500 1504 1510 1512 1512
1483 1491 1485 1479 1477 1477 1482 1489 1482 1483 1483 1481 1480 1479 1477 1476 1477 1476 1475 1473 1472 1472 1472 1472 1475 1475 1475 1477 1478 1479 1481 1482 1483 1486 1487 1489 1491 1493 1494 1497 1503 1507 1509 1508
1490 1488 1489 1478 1477 1477 1481 1480 1479 1479 1479 1479 1479 1480 1481 1482 1481 1479 1478 1475 1472 1471 1470 1471 1473 1475 1477 1478 1479 1479 1482 1480 1482 1484 1488 1489 1489 1492 1493 1497 1499 1502 1502 1504
1481 1480 1477 1478 1477 1478 1479 1479 1481 1481 1481 1481 1481 1482 1482 1482 1481 1480 1479 1478 1478 1476 1475 1475 1474 1476 1477 1477 1478 1480 1480 1481 1482 1483 1484 1487 1488 1490 1490 1492 1495 1498 1498 1498
1480 1479 1479 1479 1478 1479 1480 1480 1481 1481 1481 1482 1483 1483 1483 1483 1482 1481 1480 1479 1478 1477 1475 1474 1475 1476 1476 1476 1478 1478 1479 1480 1480 1480 1483 1483 1484 1485 1487 1490 1493 1491 1492 1495
1479 1477 1479 1479 1478 1479 1480 1480 1481 1481 1482 1482 1483 1484 1484 1484 1484 1483 1482 1481 1479 1478 1477 1477 1477 1477 1476 1476 1477 1477 1478 1477 1477 1478 1480 1480 1482 1483 1484 1485 1486 1487 1489 1490
1473 1468 1471 1473 1476 1478 1481 1480 1481 1483 1483 1483 1482 1483 1484 1484 1484 1484 1484 1483 1482 1482 1481 1480 1479 1478 1478 1477 1477 1478 1476 1476 1476 1476 1476 1476 1476 1478 1479 1480 1482 1483 1483 1484
1465 1467 1469 1472 1475 1478 1479 1479 1479 1479 1479 1480 1481 1481 1481 1482 1483 1484 1484 1484 1484 1483 1483 1482 1480 1479 1478 1477 1476 1475 1474 1474 1473 1473 1473 1474 1474 1474 1475 1475 1476 1476 1477 1478
1464 1467 1471 1472 1474 1475 1476 1477 1479 1479 1479 1479 1477 1478 1478 1479 1480 1481 1482 1482 1481 1480 1480 1479 1477 1476 1475 1474 1473 1472 1471 1470 1469 1469 1469 1469 1469 1469 1469 1469 1470 1470 1471 1471
1463 1465 1467 1470 1472 1473 1474 1475 1476 1476 1476 1475 1476 1477 1477 1477 1477 1477 1477 1478 1478 1477 1476 1475 1474 1473 1472 1471 1469 1468 1466 1465 1465 1465 1464 1463 1463 1463 1463 1463 1463 1464 1464 1465
1459 1463 1465 1467 1469 1470 1471 1472 1472 1472 1472 1473 1473 1474 1474 1474 1474 1473 1473 1473 1474 1473 1472 1471 1470 1469 1467 1466 1466 1464 1463 1462 1461 1460 1459 1459 1458 1457 1457 1457 1457 1457 1458 1458
1455 1460 1462 1464 1466 1467 1468 1469 1469 1469 1470 1470 1469 1470 1470 1470 1470 1470 1470 1469 1469 1468 1468 1467 1466 1465 1464 1463 1462 1461 1459 1458 1457 1456 1454 1454 1453 1452 1452 1452 1451 1451 1451 1451
1454 1456 1459 1461 1462 1464 1466 1467 1467 1467 1467 1467 1468 1469 1468 1467 1466 1466 1465 1464 1465 1465 1464 1464 1463 1462 1461 1460 1459 1458 1457 1455 1454 1452 1451 1450 1449 1448 1447 1447 1446 1446 1445 1445
1453 1455 1457 1459 1460 1461 1463 1464 1464 1465 1466 1467 1466 1464 1464 1464 1464 1463 1462 1462 1461 1461 1461 1461 1460 1459 1459 1458 1457 1456 1454 1453 1451 1450 1448 1447 1446 1444 1443 1442 1441 1440 1440 1440
1451 1453 1455 1456 1458 1458 1460 1461 1461 1462 1462 1462 1462 1462 1461 1460 1460 1459 1458 1458 1459 1459 1458 1458 1457 1456 1455 1454 1454 1452 1451 1450 1448 1447 1446 1444 1442 1441 1439 1438 1437 1436 1435 1435
1449 1451 1452 1453 1454 1454 1455 1456 1457 1458 1459 1458 1458 1458 1459 1458 1458 1458 1458 1457 1457 1456 1455 1455 1454 1453 1452 1451 1450 1449 1449 1447 1446 1444 1443 1441 1439 1437 1436 1434 1433 1432 1431 1429
1447 1449 1450 1451 1451 1451 1451 1452 1452 1452 1453 1454 1454 1455 1456 1456 1456 1455 1455 1455 1454 1453 1452 1451 1450 1450 1449 1448 1448 1447 1446 1444 1443 1441 1439 1437 1435 1434 1432 1430 1428 1427 1426 1425
1445 1446 1448 1448 1448 1448 1448 1448 1449 1449 1448 1449 1452 1452 1451 1452 1451 1451 1450 1450 1449 1448 1447 1447 1447 1446 1446 1445 1444 1443 1442 1440 1439 1437 1435 1433 1431 1429 1428 1426 1424 1423 1421 1420
1443 1444 1446 1446 1445 1445 1445 1445 1446 1446 1446 1447 1448 1447 1447 1446 1446 1446 1445 1445 1444 1444 1443 1442 1441 1441 1441 1441 1440 1438 1437 1436 1434 1432 1430 1428 1426 1424 1422 1421 1420 1418 1416 1415
1440 1442 1442 1443 1442 1442 1442 1442 1441 1441 1442 1443 1443 1443 1442 1441 1440 1442 1443 1442 1441 1440 1439 1438 1437 1436 1436 1436 1435 1433 1432 1430 1428 1426 1424 1422 1420 1419 1417 1416 1414 1413 1412 1411
1438 1439 1439 1439 1438 1438 1438 1437 1436 1437 1437 1436 1436 1436 1435 1435 1435 1435 1434 1434 1435 1435 1433 1433 1432 1431 1430 1430 1429 1428 1426 1425 1423 1421 1418 1416 1415 1413 1412 1411 1410 1408 1407 1406
1435 1435 1435 1435 1435 1434 1433 1432 1432 1432 1433 1431 1430 1431 1431 1430 1430 1429 1430 1430 1429 1429 1428 1428 1427 1426 1424 1424 1423 1422 1420 1419 1417 1415 1413 1411 1409 1408 1407 1406 1405 1404 1403 1401
Wind_Speed
3 1 2 4 5 9 7 0 4 3 5 3 5 6 11 17 20 22 23 22 19 16 8 4 7 11 13 14 14 14 14 14 13 12 11 11 11 12 12 12 12 11 11 9
3 4 6 7 8 8 6 5 6 5 6 3 6 11 19 19 19 20 20 19 17 15 13 7 4 6 9 11 12 12 13 13 13 12 12 12 13 13 13 13 13 12 11 10
2 2 1 6 5 4 3 4 1 4 1 4 6 9 13 15 15 14 15 15 14 13 10 8 5 7 8 11 12 13 13 13 12 12 13 13 13 14 15 14 13 12 12 10
1 3 4 4 3 2 5 4 5 4 4 4 5 8 10 11 12 13 13 11 11 9 6 2 1 4 7 9 11 12 13 13 13 13 12 13 14 14 13 13 12 11 9 7
3 3 1 2 4 3 2 4 4 3 5 8 5 3 6 11 10 11 12 12 10 9 8 4 1 2 5 7 9 11 12 13 13 13 14 15 15 14 13 12 11 11 10 9
2 4 2 0 3 3 1 3 6 6 6 6 6 3 3 12 13 11 10 10 10 6 5 3 2 2 2 3 6 7 8 9 10 11 12 12 13 13 13 12 11 11 9 7
1 2 3 2 4 2 3 3 2 4 3 4 3 2 4 8 9 11 11 10 10 5 2 6 5 3 3 3 4 6 7 8 9 11 12 13 13 12 12 12 12 12 10 7
2 3 2 1 2 2 3 2 2 4 5 5 5 4 3 4 7 9 10 9 10 8 3 4 5 5 4 4 4 5 7 7 8 9 11 12 11 12 13 13 13 12 10 10
4 3 1 3 4 5 3 3 3 4 4 2 1 1 2 3 6 7 9 9 8 8 6 3 5 6 5 5 5 5 6 8 9 11 11 12 12 13 13 13 14 15 14 13
2 1 2 4 5 5 5 5 4 3 3 2 2 2 2 5 7 5 5 6 7 7 5 5 3 2 4 6 7 7 7 8 9 10 11 12 13 14 15 16 16 15 14 15
0 0 3 3 5 6 6 4 2 2 3 3 3 1 3 3 3 4 4 4 5 5 5 4 4 1 1 2 4 6 8 9 10 11 12 13 14 14 15 15 15 15 16 15
5 13 5 8 9 4 3 2 3 3 1 1 2 3 2 2 1 2 3 4 4 4 4 3 3 3 3 3 3 5 6 7 8 10 11 12 16 15 15 16 16 17 16 15
5 17 7 12 9 4 2 2 1 1 1 1 2 4 4 4 4 3 3 3 4 6 7 7 7 7 7 8 8 9 9 9 9 10 11 11 12 13 14 15 16 16 16 17
13 15 8 9 6 6 4 3 2 3 3 3 5 5 6 7 6 6 6 7 6 6 9 11 12 11 12 11 12 12 12 12 12 12 13 12 13 14 15 16 17 17 17 16
14 11 7 9 7 6 6 5 4 4 5 5 5 6 6 7 8 9 9 10 11 11 11 12 12 10 11 11 11 11 11 11 12 12 13 13 13 14 16 18 19 19 18 18
16 11 8 7 6 7 7 6 6 6 6 6 8 9 9 9 9 10 11 12 14 14 13 12 12 13 11 11 10 10 10 11 11 12 12 12 13 12 13 14 16 17 19 18
20 13 12 10 8 7 6 4 5 5 5 6 8 7 8 9 10 10 11 11 13 14 12 11 11 10 11 11 9 9 9 9 10 10 11 11 11 11 11 12 14 14 15 14
13 9 9 8 9 7 6 5 6 7 7 7 7 8 9 8 8 11 12 12 11 10 9 9 8 7 8 9 10 10 10 10 10 10 10 9 10 11 10 10 11 11 11 10
13 9 7 7 7 6 6 8 9 9 8 8 10 10 10 12 14 14 11 10 9 8 9 9 10 10 8 9 10 12 11 11 10 10 10 10 9 10 10 10 11 11 12 12
13 10 8 6 5 5 6 8 10 10 11 12 11 10 11 11 10 8 7 6 7 9 11 11 11 11 10 8 8 10 10 10 10 10 10 10 10 10 10 10 10 11 12 14
12 10 8 6 6 6 7 8 11 11 10 11 12 11 10 9 8 8 8 7 5 7 8 8 8 9 8 7 6 6 9 11 12 12 12 12 12 12 11 11 11 10 10 12
12 10 7 7 9 8 8 9 9 10 11 11 10 8 9 8 8 8 8 10 7 10 9 9 8 7 6 7 8 8 9 12 14 15 14 14 14 14 13 13 12 11 11 10
9 7 6 7 9 8 7 10 9 9 10 11 10 11 11 10 11 12 11 10 10 10 10 9 9 9 11 11 10 11 13 14 14 15 15 15 14 14 14 13 12 11 11 11
8 7 5 7 8 9 10 8 10 12 13 12 13 13 14 15 15 15 13 13 13 12 12 11 12 12 13 13 13 14 15 15 15 15 16 16 15 14 14 13 12 11 10 10
7 8 9 9 11 11 12 10 13 14 15 15 15 16 17 16 18 14 14 15 16 15 14 13 13 14 14 15 15 16 17 17 17 16 17 16 15 14 13 12 12 11 10 10
9 9 10 11 12 13 13 14 16 14 14 14 15 17 18 18 19 18 16 16 16 16 15 14 14 15 15 16 17 17 17 17 18 18 18 16 14 13 12 12 12 11 11 10
11 12 12 13 12 13 13 14 16 14 13 15 15 11 14 14 14 14 14 14 14 14 14 14 15 16 16 17 17 18 17 18 18 19 17 14 13 11 10 10 10 10 10 10
Wind_Direction
48 278 3 0 18 31 58 157 92 149 101 8 357 22 33 45 44 45 43 48 50 45 63 152 195 190 190 191 198 197 194 190 188 184 185 189 196 207 215 221 217 208 207 214
62 78 99 67 24 23 41 35 65 68 47 13 40 46 38 37 35 35 37 39 41 46 49 66 138 177 192 191 194 191 187 186 188 190 193 200 205 209 213 210 202 208 216 217
42 317 270 35 358 354 38 46 81 79 6 356 26 39 27 19 23 22 22 26 33 35 42 57 98 150 171 179 187 190 191 187 185 186 188 195 197 196 197 202 210 214 209 204
122 7 51 243 319 193 103 45 16 71 88 94 117 105 51 28 17 8 2 3 8 23 29 56 121 138 152 167 178 190 192 196 197 197 198 202 201 203 206 208 205 208 213 216
102 54 267 15 353 5 43 352 354 49 22 16 36 120 68 25 19 9 357 352 343 341 346 333 286 217 211 203 198 202 205 204 202 202 206 210 210 207 203 200 203 209 213 216
90 94 114 238 335 359 261 67 12 47 26 356 357 55 288 8 11 15 7 350 347 321 312 268 253 257 243 218 215 216 212 204 197 195 193 193 194 194 194 195 202 211 217 226
89 109 293 259 295 333 71 209 2 70 79 53 102 127 13 14 18 14 10 4 360 2 199 183 190 183 192 193 176 185 192 190 188 189 192 195 199 198 198 205 212 219 225 234
94 97 222 240 64 169 189 96 33 31 33 62 99 108 79 53 29 23 22 22 24 28 49 156 169 177 178 182 196 201 206 201 207 211 211 210 207 211 211 215 222 230 239 246
168 205 171 85 115 121 121 98 53 52 38 52 75 78 99 29 23 20 22 27 31 47 58 115 175 195 194 195 203 215 217 214 211 213 218 222 220 225 227 232 238 240 241 248
117 219 157 140 111 123 127 123 94 76 64 56 14 75 356 347 359 6 19 23 31 29 45 70 87 169 211 224 228 229 232 235 231 234 237 239 239 239 237 240 245 250 255 265
93 90 131 187 160 134 119 107 92 84 86 105 121 277 305 319 339 347 3 22 26 17 16 29 59 55 262 258 256 250 248 244 243 241 240 242 242 243 249 253 253 252 253 259
211 191 157 181 177 171 143 101 51 48 131 145 198 205 233 260 279 307 328 348 359 359 357 350 346 347 326 301 282 272 267 265 258 247 249 248 251 248 246 247 248 253 259 268
159 163 150 154 174 184 204 240 250 272 286 230 201 219 223 254 256 252 264 291 309 314 309 304 298 294 292 290 285 278 272 266 264 261 261 260 259 260 257 257 255 258 264 269
152 157 156 174 188 208 222 240 260 283 280 264 247 241 235 238 248 263 270 277 279 289 298 295 283 293 294 291 286 280 275 272 270 269 267 267 270 272 271 272 269 263 263 267
168 183 172 173 192 219 238 245 252 271 280 273 276 282 268 260 263 264 270 277 285 288 289 291 286 288 296 297 293 286 283 280 277 272 270 270 272 277 284 277 271 271 267 264
174 180 185 200 219 238 246 244 249 249 250 255 264 265 269 275 280 282 286 290 287 280 282 287 298 302 303 302 297 292 290 287 284 283 280 277 275 277 279 278 269 264 266 263
175 187 199 212 219 236 267 251 247 241 242 249 252 256 265 273 276 280 283 284 290 288 288 295 290 300 310 317 318 314 311 306 297 294 290 286 282 278 279 277 273 269 268 267
189 192 204 221 212 217 228 235 240 245 249 259 274 276 275 277 287 291 288 288 289 293 296 297 298 308 311 311 317 321 320 317 313 310 307 301 290 280 278 278 278 277 275 272
197 205 202 193 198 203 223 234 244 249 258 262 262 269 278 281 286 287 288 291 294 293 294 295 293 295 300 305 316 319 319 319 317 314 310 307 303 297 293 284 276 273 275 275
197 197 195 206 215 213 224 238 242 249 253 262 268 273 281 286 281 276 277 281 287 295 295 292 293 293 292 283 298 310 314 318 317 315 311 308 304 301 297 294 290 286 280 275
196 196 203 227 234 240 240 244 246 242 248 258 260 265 276 276 275 276 285 296 298 290 292 288 285 293 301 295 296 310 323 326 326 323 319 313 309 304 300 299 298 295 291 288
197 205 224 245 255 255 251 264 268 253 248 253 254 258 274 274 274 276 287 296 285 283 284 275 271 285 295 306 314 318 321 324 322 317 313 309 307 305 303 300 298 297 296 295
200 218 252 264 274 274 249 264 269 274 267 251 262 272 275 275 269 276 281 277 284 286 287 282 276 279 283 288 293 296 298 301 305 308 309 305 304 302 300 298 297 297 299 301
205 236 262 269 267 265 271 272 258 263 267 267 267 271 275 274 271 275 275 275 281 286 288 282 274 273 276 280 286 294 301 304 306 309 309 306 303 300 298 296 295 294 296 297
230 249 262 268 273 278 278 274 262 260 261 262 270 276 272 271 273 279 276 276 277 280 284 284 282 280 281 285 290 296 300 303 304 306 305 303 302 300 296 294 295 296 296 296
247 262 269 271 278 280 280 272 271 272 269 272 268 266 267 269 270 271 273 274 275 274 276 276 278 279 282 285 288 293 296 298 301 303 304 303 299 297 297 298 299 299 300 303
255 263 271 273 278 282 280 277 275 277 271 272 276 275 274 277 278 277 276 275 276 276 275 278 281 282 284 286 290 293 297 300 303 303 301 297 295 296 300 302 302 304 305 307